WetterOnline ( https://www.wetteronline.de )

Wetter aktuell Stein

Aktuelles Wetter: Roth (386m)

6-stündlich | Neueste Meldungen
Ortszeit Temperatur Wetter
So, 12.07. 8:00 13.0° C wolkenlos
So, 12.07. 2:00 10.6° C wolkig
Sa, 11.07. 20:00 19.8° C leicht bewölkt
Sa, 11.07. 14:00 18.8° C bewölkt
Sa, 11.07. 8:00 13.2° C Sprühregen
Sa, 11.07. 2:00 17.0° C bedeckt
Fr, 10.07. 20:00 21.7° C wolkig
Fr, 10.07. 14:00 29.3° C bewölkt
Ortszeit Temperatur Wetter
So, 12.07. 12:00 18.9° C bewölkt
So, 12.07. 11:50 18.9° C bewölkt
So, 12.07. 11:40 18.5° C bewölkt
So, 12.07. 11:30 18.8° C leicht bewölkt
So, 12.07. 11:20 18.8° C leicht bewölkt
So, 12.07. 11:10 17.5° C wolkig
So, 12.07. 11:00 17.7° C wolkig
So, 12.07. 10:30 18.4° C wolkenlos
So, 12.07. 10:00 17.6° C wolkenlos
So, 12.07. 9:30 16.9° C wolkenlos
So, 12.07. 9:00 15.1° C wolkenlos
Ortszeit Relative Feuchte Sichtweite
So, 12.07. 8:00 81% 50 km
So, 12.07. 2:00 81% 65 km
Sa, 11.07. 20:00 37% >70 km
Sa, 11.07. 14:00 57% >70 km
Sa, 11.07. 8:00 92% 16 km
Sa, 11.07. 2:00 66% >70 km
Fr, 10.07. 20:00 50% 65 km
Fr, 10.07. 14:00 36% >70 km
Ortszeit Relative Feuchte Sichtweite
So, 12.07. 12:00 44% >70 km
So, 12.07. 11:50 44% -
So, 12.07. 11:40 44% -
So, 12.07. 11:30 53% >70 km
So, 12.07. 11:20 53% -
So, 12.07. 11:10 57% -
So, 12.07. 11:00 53% 65 km
So, 12.07. 10:30 55% 50 km
So, 12.07. 10:00 59% 55 km
So, 12.07. 9:30 69% 50 km
So, 12.07. 9:00 73% 55 km
Ortszeit Niederschlagsmenge Niederschlagsart
So, 12.07. 8:00 0.0 l/m2 in 12 Std. -
So, 12.07. 2:00 0.0 l/m2 in 6 Std. -
Sa, 11.07. 20:00 0.1 l/m2 in 12 Std. Regen
Sa, 11.07. 14:00 0.1 l/m2 in 6 Std. Regen
Sa, 11.07. 8:00 2 l/m2 in 12 Std. Regen
Sa, 11.07. 2:00 0.0 l/m2 in 6 Std. -
Fr, 10.07. 20:00 0.0 l/m2 in 12 Std. -
Fr, 10.07. 14:00 0.0 l/m2 in 6 Std. -
Ortszeit Niederschlagsmenge Niederschlagsart
So, 12.07. 12:00 0.0 l/m2 in 1 Std. -
So, 12.07. 11:50 keine Meldung -
So, 12.07. 11:40 keine Meldung -
So, 12.07. 11:30 0.0 l/m2 in 1 Std. -
So, 12.07. 11:20 keine Meldung -
So, 12.07. 11:10 keine Meldung -
So, 12.07. 11:00 0.0 l/m2 in 1 Std. -
So, 12.07. 10:30 0.0 l/m2 in 1 Std. -
So, 12.07. 10:00 0.0 l/m2 in 1 Std. -
So, 12.07. 9:30 0.0 l/m2 in 1 Std. -
So, 12.07. 9:00 0.0 l/m2 in 1 Std. -
Ortszeit Stärke Spitze Richtung
km/h Bft. km/h Grad Sektor
So, 12.07. 8:00 4 1 7 30° NO
So, 12.07. 2:00 4 1 22 210° SW
Sa, 11.07. 20:00 11 2 29 340° N
Sa, 11.07. 14:00 14 3 29 330° NW
Sa, 11.07. 8:00 9 2 20 350° N
Sa, 11.07. 2:00 11 2 29 320° NW
Fr, 10.07. 20:00 7 2 52 330° NW
Fr, 10.07. 14:00 29 5 50 250° W
Ortszeit Stärke Spitze Richtung
km/h Bft. km/h Grad Sektor
So, 12.07. 12:00 9 2 17 350° N
So, 12.07. 11:50 9 2 - 350° N
So, 12.07. 11:40 11 2 - 350° N
So, 12.07. 11:30 7 2 14 50° NO
So, 12.07. 11:20 7 2 - 50° NO
So, 12.07. 11:10 7 2 - 30° NO
So, 12.07. 11:00 7 2 14 20° N
So, 12.07. 10:30 7 2 14 80° O
So, 12.07. 10:00 9 2 17 120° SO
So, 12.07. 9:30 7 2 18 60° NO
So, 12.07. 9:00 7 2 11 70° O
Ortszeit Untergrenze Bedeckung Gattung
total tief tief mittel hoch
So, 12.07. 8:00 - 0/8 0/8 - - -
So, 12.07. 2:00 2400 m 5/8 5/8 - - -
Sa, 11.07. 20:00 1800 m 4/8 4/8 - - -
Sa, 11.07. 14:00 1080 m 7/8 7/8 - - -
Sa, 11.07. 8:00 210 m 7/8 7/8 - - -
Sa, 11.07. 2:00 3300 m 8/8 8/8 - - -
Fr, 10.07. 20:00 1800 m 5/8 5/8 - - -
Fr, 10.07. 14:00 2100 m 7/8 7/8 - - -
Ortszeit Bedeckungsgrad in Achtel und Wolkenuntergrenze
So, 12.07. 12:00 3(1440m) 5(1500m) 7(2100m)
So, 12.07. 11:50 3(1440m) 5(1500m) 7(2100m)
So, 12.07. 11:40 3(1410m) 3(1500m) 7(2100m)
So, 12.07. 11:30 4(2100m)
So, 12.07. 11:20 4(2100m)
So, 12.07. 11:10 2(1290m) 2(1500m) 5(2100m)
So, 12.07. 11:00 5(1260m) 5(1500m) 5(2100m)
So, 12.07. 10:30 keine Wolken
So, 12.07. 10:00 1(870m)
So, 12.07. 9:30 keine Wolken
So, 12.07. 9:00 keine Wolken
Ortszeit Luftdruck NN (hPa) Tendenz (hPa in 3 Std.)
So, 12.07. 8:00 1026 + 1,2
So, 12.07. 2:00 1026 + 0,1
Sa, 11.07. 20:00 1022 + 0,7
Sa, 11.07. 14:00 1022 + 0,6
Sa, 11.07. 8:00 1021 + 1,9
Sa, 11.07. 2:00 1018 + 1,3
Fr, 10.07. 20:00 1014 + 1,8
Fr, 10.07. 14:00 1009 - 0,2
Ortszeit Luftdruck NN (hPa) Tendenz (hPa in 3 Std.)
So, 12.07. 12:00 1026 - 0,2
So, 12.07. 11:50 1026 keine Meldung
So, 12.07. 11:40 1026 keine Meldung
So, 12.07. 11:30 1026 - 0,1
So, 12.07. 11:20 1026 keine Meldung
So, 12.07. 11:10 1026 keine Meldung
So, 12.07. 11:00 1026 + 0,1
So, 12.07. 10:30 1026 + 0,3
So, 12.07. 10:00 1026 + 0,7
So, 12.07. 9:30 1026 + 0,7
So, 12.07. 9:00 1026 + 1,0
Ortszeit Schneehöhe (cm)
So, 12.07. 8:00 -
So, 12.07. 2:00 -
Sa, 11.07. 20:00 -
Sa, 11.07. 14:00 -
Sa, 11.07. 8:00 -
Sa, 11.07. 2:00 -
Fr, 10.07. 20:00 -
Fr, 10.07. 14:00 -
Ortszeit Schneehöhe (cm)
So, 12.07. 12:00 -
So, 12.07. 11:50 -
So, 12.07. 11:40 -
So, 12.07. 11:30 -
So, 12.07. 11:20 -
So, 12.07. 11:10 -
So, 12.07. 11:00 -
So, 12.07. 10:30 -
So, 12.07. 10:00 -
So, 12.07. 9:30 -
So, 12.07. 9:00 -
Link zu dieser Seite / Seite empfehlen

Das Wetter in ...